Haines, AK

1:25 PM AKDT on March 27, 2017 (GMT -0800)
Haines

Weather History for PAHN - August, 2012

Change the Weather History Date:

Wednesday, August 22, 2012

  Actual Average Record
Temperature  
Mean Temperature 53 °F -  
Max Temperature 54 °F 59 °F 83 °F (1979)
Min Temperature 52 °F 49 °F 40 °F (1973)
Degree Days  
Heating Degree Days 12    
Growing Degree Days 3 (Base 50)    
Moisture  
Dew Point 52 °F    
Average Humidity 95    
Maximum Humidity 97    
Minimum Humidity 93    
Precipitation  
Precipitation 0.59 in - - ()
Sea Level Pressure  
Sea Level Pressure 29.93 in    
Wind  
Wind Speed 2 mph (East)    
Max Wind Speed 8 mph    
Max Gust Speed -    
Visibility 8 miles    
Events Rain    
Averages and records for this station are not official NWS values.
T = Trace of Precipitation, MM = Missing Value Source: NWS Daily Summary

Daily Weather History Graph

Daily Weather History Graph

Search for Another Location

Airport or City:

Trip Planner

Search our weather history database for the weather conditions in past years. The results will help you decide how hot, cold, wet, or windy it might be!

Date:

Astronomy

Aug. 22, 2012 Rise Set
Actual Time 5:37 AM AKDT 8:30 PM AKDT
Civil Twilight 4:51 AM AKDT 9:16 PM AKDT
Nautical Twilight 3:47 AM AKDT 10:18 PM AKDT
Astronomical Twilight 2:09 AM AKDT 11:52 PM AKDT
Moon 1:11 PM AKDT (8/22) 9:27 PM AKDT (8/22)
Length of Visible Light 16h 25m
Length of Day
14h 52m
Waxing Crescent, 30% of the Moon is Illuminated
Aug 22
Waxing Crescent
Aug 24
First Quarter
Aug 31
Full
Sep 8
Last Quarter
Sep 15
New

Hourly Weather History & Observations

Time (AKDT) Temp. Dew Point Humidity Pressure Visibility Wind Dir Wind Speed Gust Speed Precip Events Conditions
12:08 AM 53.6 °F 51.8 °F 94% 29.93 in 10.0 mi East 4.6 mph - N/A   Overcast
12:54 AM 53.1 °F 51.1 °F 93% 29.93 in 10.0 mi Calm Calm - N/A   Overcast
1:54 AM 54.0 °F 52.0 °F 93% 29.94 in 10.0 mi Calm Calm - N/A   Overcast
2:54 AM 52.0 °F 51.1 °F 97% 29.94 in 10.0 mi Calm Calm - N/A   Overcast
3:31 AM 53.6 °F 51.8 °F 94% 29.92 in 10.0 mi Calm Calm - N/A   Overcast
3:42 AM 53.6 °F 51.8 °F 94% 29.92 in 10.0 mi Calm Calm - N/A   Overcast
3:54 AM 53.1 °F 51.1 °F 93% 29.93 in 10.0 mi Calm Calm - N/A   Overcast
4:04 AM 53.6 °F 51.8 °F 94% 29.92 in 10.0 mi Calm Calm - N/A   Overcast
4:54 AM 53.1 °F 52.0 °F 96% 29.93 in 10.0 mi Calm Calm - 0.00 in Rain Light Rain
5:54 AM 53.1 °F 52.0 °F 96% 29.93 in 10.0 mi Calm Calm - 0.00 in   Overcast
6:02 AM 53.6 °F 51.8 °F 94% 29.92 in 10.0 mi Calm Calm - N/A   Overcast
6:54 AM 53.1 °F 52.0 °F 96% 29.93 in 4.0 mi Calm Calm - 0.06 in Rain Rain
7:54 AM 53.1 °F 52.0 °F 96% 29.93 in 3.0 mi West 3.5 mph - 0.08 in Rain Light Rain
8:10 AM 53.6 °F 51.8 °F 94% 29.92 in 9.0 mi Calm Calm - 0.00 in Rain Light Rain
8:54 AM 53.1 °F 52.0 °F 96% 29.93 in 10.0 mi Calm Calm - 0.00 in   Overcast
9:15 AM 53.6 °F 51.8 °F 94% 29.92 in 10.0 mi Calm Calm - 0.00 in Rain Light Rain
9:27 AM 53.6 °F 51.8 °F 94% 29.92 in 10.0 mi Calm Calm - 0.00 in   Overcast
9:54 AM 52.0 °F 51.1 °F 97% 29.93 in 10.0 mi Calm Calm - 0.00 in   Overcast
10:29 AM 53.6 °F 51.8 °F 94% 29.92 in 10.0 mi West 3.5 mph - 0.00 in Rain Light Rain
10:54 AM 54.0 °F 52.0 °F 93% 29.94 in 9.0 mi Calm Calm - 0.01 in Rain Light Rain
11:11 AM 53.6 °F 51.8 °F 94% 29.92 in 10.0 mi Calm Calm - 0.00 in Rain Light Rain
11:34 AM 53.6 °F 51.8 °F 94% 29.93 in 10.0 mi Calm Calm - 0.00 in Rain Light Rain
11:44 AM 53.6 °F 51.8 °F 94% 29.93 in 10.0 mi Calm Calm - 0.00 in Rain Light Rain
11:54 AM 54.0 °F 52.0 °F 93% 29.94 in 10.0 mi Calm Calm - 0.00 in Rain Light Rain
12:54 PM 54.0 °F 53.1 °F 97% 29.93 in 6.0 mi SE 4.6 mph - 0.02 in Rain Light Rain
1:25 PM 53.6 °F 51.8 °F 94% 29.92 in 8.0 mi ESE 4.6 mph - 0.01 in Rain Light Rain
1:54 PM 53.1 °F 52.0 °F 96% 29.93 in 9.0 mi ESE 4.6 mph - 0.01 in Rain Light Rain
2:54 PM 54.0 °F 53.1 °F 97% 29.93 in 9.0 mi East 5.8 mph - 0.02 in Rain Light Rain
3:54 PM 54.0 °F 53.1 °F 97% 29.93 in 4.0 mi ESE 4.6 mph - 0.06 in Rain Rain
4:54 PM 54.0 °F 53.1 °F 97% 29.93 in 8.0 mi ENE 4.6 mph - 0.04 in Rain Light Rain
5:54 PM 53.1 °F 52.0 °F 96% 29.93 in 6.0 mi East 4.6 mph - 0.05 in Rain Rain
6:54 PM 54.0 °F 52.0 °F 93% 29.93 in 5.0 mi East 8.1 mph - 0.07 in Rain Rain
7:54 PM 54.0 °F 52.0 °F 93% 29.92 in 7.0 mi East 6.9 mph - 0.06 in Rain Rain
8:54 PM 54.0 °F 52.0 °F 93% 29.92 in 8.0 mi ENE 6.9 mph - 0.03 in Rain Light Rain
9:54 PM 54.0 °F 52.0 °F 93% 29.92 in 7.0 mi East 8.1 mph - 0.02 in Rain Light Rain
10:54 PM 54.0 °F 52.0 °F 93% 29.93 in 5.0 mi East 6.9 mph - 0.03 in Rain Light Rain
11:54 PM 54.0 °F 52.0 °F 93% 29.92 in 7.0 mi ENE 8.1 mph - 0.03 in Rain Light Rain